Location: Unspecified
(57.6483°N, 3.3184°W)
Time: 10:08:56
(UTC+00:00)

BlueWalker 3 - Pass Details

Date: 28 January 2026
Orbit: 450 x 461 km, 53.2° (Epoch: 11 February)

Event Time Altitude Azimuth Distance (km) Brightness Sun altitude
Rises 19:39:13 0° 261° (W) 2,458 6.7 -24.9°
Reaches altitude 10° 19:41:25 10° 253° (WSW) 1,585 5.3 -25.2°
Enters shadow 19:43:28 28° 231° (SW) 878 3.5 -25.4°
